Meteo pe oră la Dzierzecin

Astăzi, 8 Martie, Luni

Timp Temperatura Precipitaţii Vânt Presiune Umiditate
00:00 -2°C° 0 mm 4 m/s 757 mmHg 64%
01:00 -2°C° 0 mm 4 m/s 757 mmHg 64%
02:00 -2°C° 0 mm 5 m/s 757 mmHg 64%
03:00 -2°C° 0 mm 5 m/s 757 mmHg 63%
04:00 -2°C° 0 mm 5 m/s 758 mmHg 63%
05:00 -2°C° 0 mm 5 m/s 758 mmHg 63%
06:00 -2°C° 0 mm 5 m/s 758 mmHg 63%
07:00 -2°C° 0 mm 5 m/s 759 mmHg 63%
08:00 -2°C° 0 mm 5 m/s 759 mmHg 60%
09:00 -1°C° 0 mm 5 m/s 760 mmHg 58%
10:00 -2°C° 0 mm 6 m/s 760 mmHg 56%
11:00 -1°C° 0 mm 5 m/s 760 mmHg 57%
12:00 -1°C° 0 mm 5 m/s 760 mmHg 57%
13:00 0°C° 0 mm 5 m/s 761 mmHg 58%
14:00 -1°C° 0 mm 5 m/s 761 mmHg 59%
15:00 -1°C° 0 mm 4 m/s 761 mmHg 61%
16:00 -1°C° 0 mm 4 m/s 761 mmHg 62%
17:00 -1°C° 0 mm 3 m/s 761 mmHg 65%
18:00 -2°C° 0 mm 3 m/s 761 mmHg 68%
19:00 -3°C° 0 mm 2 m/s 761 mmHg 71%
20:00 -3°C° 0 mm 2 m/s 761 mmHg 70%
21:00 -1°C° 0 mm 1 m/s 761 mmHg 69%
22:00 -1°C° 0 mm 1 m/s 761 mmHg 67%
23:00 -1°C° 0 mm 1 m/s 761 mmHg 67%

Mâine, 9 Martie, Marţi

Timp Temperatura Precipitaţii Vânt Presiune Umiditate
00:00 0°C° 0 mm 1 m/s 761 mmHg 67%
01:00 0°C° 0 mm 1 m/s 761 mmHg 66%
02:00 0°C° 0 mm 1 m/s 761 mmHg 67%
03:00 -2°C° 0 mm 2 m/s 760 mmHg 68%
04:00 -2°C° 0 mm 2 m/s 760 mmHg 69%
05:00 -2°C° 0 mm 2 m/s 760 mmHg 69%
06:00 -2°C° 0 mm 2 m/s 760 mmHg 69%
07:00 -2°C° 0 mm 2 m/s 760 mmHg 69%
08:00 -2°C° 0 mm 3 m/s 760 mmHg 63%
09:00 -1°C° 0 mm 3 m/s 760 mmHg 58%
10:00 0°C° 0 mm 3 m/s 760 mmHg 53%
11:00 0°C° 0 mm 3 m/s 760 mmHg 49%
12:00 +2°C° 0 mm 2 m/s 760 mmHg 45%
13:00 +2°C° 0 mm 2 m/s 760 mmHg 41%
14:00 +2°C° 0 mm 2 m/s 759 mmHg 41%
15:00 +3°C° 0 mm 1 m/s 759 mmHg 42%
16:00 +3°C° 0 mm 1 m/s 759 mmHg 42%
17:00 +2°C° 0 mm 1 m/s 759 mmHg 47%
18:00 +1°C° 0 mm 1 m/s 759 mmHg 52%
19:00 0°C° 0 mm 1 m/s 759 mmHg 57%
20:00 0°C° 0 mm 1 m/s 759 mmHg 57%
21:00 -2°C° 0 mm 2 m/s 759 mmHg 57%
22:00 -2°C° 0 mm 2 m/s 759 mmHg 58%
23:00 -2°C° 0 mm 2 m/s 759 mmHg 58%

Poimâine, 10 Martie, Miercuri

Timp Temperatura Precipitaţii Vânt Presiune Umiditate
00:00 -2°C° 0 mm 3 m/s 759 mmHg 59%
01:00 -2°C° 0 mm 3 m/s 758 mmHg 60%
02:00 -2°C° 0 mm 3 m/s 758 mmHg 60%
03:00 -4°C° 0 mm 3 m/s 758 mmHg 59%
04:00 -3°C° 0 mm 2 m/s 758 mmHg 59%
05:00 -3°C° 0 mm 2 m/s 758 mmHg 58%
06:00 -3°C° 0 mm 2 m/s 758 mmHg 58%
07:00 -2°C° 0 mm 2 m/s 758 mmHg 57%
08:00 -1°C° 0 mm 2 m/s 759 mmHg 51%
09:00 +1°C° 0 mm 2 m/s 759 mmHg 46%
10:00 +2°C° 0 mm 2 m/s 759 mmHg 40%
11:00 +4°C° 0 mm 1 m/s 759 mmHg 38%
12:00 +4°C° 0 mm 1 m/s 759 mmHg 36%
13:00 +5°C° 0 mm 1 m/s 759 mmHg 34%
14:00 +4°C° 0 mm 2 m/s 758 mmHg 38%
15:00 +4°C° 0 mm 2 m/s 758 mmHg 41%
16:00 +4°C° 0 mm 2 m/s 757 mmHg 45%
17:00 +2°C° 0 mm 3 m/s 757 mmHg 49%
18:00 -1°C° 0 mm 4 m/s 757 mmHg 53%
19:00 -2°C° 0 mm 4 m/s 756 mmHg 56%
20:00 -2°C° 0 mm 5 m/s 756 mmHg 56%
21:00 -2°C° 0 mm 6 m/s 756 mmHg 56%
22:00 -2°C° 0 mm 6 m/s 755 mmHg 56%
23:00 -2°C° 0 mm 7 m/s 755 mmHg 60%

11 Martie, Joi

Timp Temperatura Precipitaţii Vânt Presiune Umiditate
00:00 -2°C° 0 mm 7 m/s 754 mmHg 63%
01:00 -2°C° 0 mm 7 m/s 753 mmHg 67%
02:00 -2°C° 0.1 mm 7 m/s 752 mmHg 74%
03:00 -2°C° 0.1 mm 8 m/s 751 mmHg 81%
04:00 -2°C° 0.1 mm 8 m/s 750 mmHg 88%
05:00 -2°C° 0.3 mm 8 m/s 749 mmHg 90%
06:00 -1°C° 0.3 mm 8 m/s 748 mmHg 93%
07:00 -1°C° 0.3 mm 9 m/s 747 mmHg 96%
08:00 0°C° 1 mm 9 m/s 746 mmHg 95%
09:00 0°C° 1 mm 10 m/s 745 mmHg 95%
10:00 0°C° 1 mm 10 m/s 744 mmHg 95%
11:00 0°C° 1 mm 10 m/s 743 mmHg 93%
12:00 +1°C° 1 mm 9 m/s 742 mmHg 92%
13:00 +1°C° 1 mm 9 m/s 742 mmHg 91%
14:00 +2°C° 0.8 mm 9 m/s 741 mmHg 91%
15:00 +4°C° 0.8 mm 8 m/s 740 mmHg 92%
16:00 +4°C° 0.8 mm 7 m/s 739 mmHg 93%
17:00 +4°C° 1.6 mm 7 m/s 739 mmHg 91%
18:00 +4°C° 1.6 mm 7 m/s 738 mmHg 89%
19:00 +4°C° 1.6 mm 8 m/s 738 mmHg 87%
20:00 +4°C° 0.1 mm 8 m/s 739 mmHg 85%
21:00 +3°C° 0.1 mm 9 m/s 739 mmHg 84%
22:00 +3°C° 0.1 mm 9 m/s 739 mmHg 82%
23:00 +3°C° 0 mm 9 m/s 739 mmHg 81%

12 Martie, Vineri

Timp Temperatura Precipitaţii Vânt Presiune Umiditate
00:00 +3°C° 0 mm 10 m/s 739 mmHg 81%
01:00 +2°C° 0 mm 10 m/s 739 mmHg 80%
02:00 +2°C° 0.2 mm 10 m/s 739 mmHg 82%
03:00 +2°C° 0.2 mm 10 m/s 739 mmHg 83%
04:00 +2°C° 0.2 mm 10 m/s 739 mmHg 85%
05:00 +1°C° 0.5 mm 11 m/s 739 mmHg 86%
06:00 +1°C° 0.5 mm 11 m/s 740 mmHg 88%
07:00 +1°C° 0.5 mm 11 m/s 740 mmHg 90%
08:00 0°C° 0 mm 12 m/s 741 mmHg 84%
09:00 +1°C° 0 mm 13 m/s 741 mmHg 78%
10:00 +1°C° 0 mm 14 m/s 742 mmHg 72%
11:00 +1°C° 0.2 mm 15 m/s 743 mmHg 73%
12:00 +1°C° 0.2 mm 15 m/s 743 mmHg 73%
13:00 +1°C° 0.2 mm 15 m/s 744 mmHg 73%
14:00 +1°C° 0 mm 14 m/s 744 mmHg 71%
15:00 +1°C° 0 mm 14 m/s 745 mmHg 70%
16:00 +1°C° 0 mm 13 m/s 745 mmHg 68%
17:00 +2°C° 0 mm 12 m/s 745 mmHg 71%
18:00 +1°C° 0 mm 11 m/s 746 mmHg 74%
19:00 +1°C° 0 mm 10 m/s 746 mmHg 77%
20:00 +1°C° 0 mm 9 m/s 747 mmHg 79%
21:00 +1°C° 0 mm 8 m/s 747 mmHg 80%
22:00 +1°C° 0 mm 8 m/s 747 mmHg 81%
23:00 0°C° 0 mm 7 m/s 747 mmHg 82%

13 Martie, Sâmbătă

Timp Temperatura Precipitaţii Vânt Presiune Umiditate
00:00 0°C° 0 mm 7 m/s 747 mmHg 84%
01:00 +1°C° 0 mm 6 m/s 747 mmHg 85%
02:00 +1°C° 0 mm 6 m/s 747 mmHg 85%
03:00 +1°C° 0 mm 6 m/s 747 mmHg 85%
04:00 +1°C° 0 mm 6 m/s 746 mmHg 85%
05:00 +1°C° 0 mm 6 m/s 746 mmHg 84%
06:00 +1°C° 0 mm 6 m/s 746 mmHg 84%
07:00 +1°C° 0 mm 6 m/s 746 mmHg 83%
08:00 +2°C° 0 mm 7 m/s 746 mmHg 80%
09:00 +3°C° 0 mm 7 m/s 746 mmHg 77%
10:00 +4°C° 0 mm 7 m/s 746 mmHg 74%
11:00 +4°C° 0.2 mm 7 m/s 746 mmHg 78%
12:00 +3°C° 0.2 mm 7 m/s 746 mmHg 82%
13:00 +3°C° 0.2 mm 7 m/s 746 mmHg 86%
14:00 +3°C° 0.6 mm 7 m/s 746 mmHg 87%
15:00 +3°C° 0.6 mm 6 m/s 746 mmHg 88%
16:00 +2°C° 0.6 mm 5 m/s 746 mmHg 89%
17:00 +2°C° 0 mm 5 m/s 746 mmHg 89%
18:00 +1°C° 0 mm 4 m/s 746 mmHg 88%
19:00 +1°C° 0 mm 4 m/s 746 mmHg 88%
20:00 +1°C° 0 mm 4 m/s 747 mmHg 88%
21:00 +1°C° 0 mm 4 m/s 747 mmHg 88%
22:00 0°C° 0 mm 4 m/s 747 mmHg 88%
23:00 0°C° 0 mm 4 m/s 747 mmHg 89%
Arată mai mult

Formular de consimțământ

Meteoprog și furnizorii noștri de servicii pot stoca și accesa date personale, precum cookies, identificatori de dispozitiv sau alte tehnologii similare pe dispozitivul dumneavoastră și procesa astfel de date pentru a personaliza conținutul și reclamele, dar și pentru a oferi caracteristici de social media și pentru a analiza traficul.

  • Stocarea și/sau accesarea informațiilor pe dispozitivul dumneavoastră

    Cookies, identificatori de dispozitiv sau alte informații pot fi stocate sau accesate pe dispozitiv în scopurile indicate mai sus.

  • Reclame și conținut personalizat, evaluarea reclamelor și a conținutului, informații despre audiențe și dezvoltarea produselor

    Reclamele și conținutul pot fi personalizate pe baza unui profil. Pot fi adăugate date suplimentare pentru a personaliza mai bine reclamele și conținutul. Performanța reclamelor și conținutului poate fi măsurată. Pot fi obținute informații despre utilizatorii care au văzut reclamele și conținutul. Aceste date pot fi utilizate pentru a dezvolta sau îmbunătăți experiența utilizatorilor, sistemele și software-ul.

Dând clic pe ‘Sunt de acord’, permiteți utilizarea cookie-urilor menționate, a identificatorilor de dispozitiv, balizelor web sau altor tehnologii similare. Setările pot fi modificate din browser-ul dispozitivului dumneavoastră.

În anumite scopuri, interesele legitime pot prima asupra consimțământului. Puteți citi mai multe informații în acest sens în Politica privind Confidențialitatea Datelor și Cookie.